EW4443 Weather Reports


time (UTC)temp
C
wind
direction
speed
KPH
gust
KPH
rain 1hr
cm
rain 24hr
cm
rain mn
cm
humidity
%
barometer
mb
20260901190359 33 45 1.6 9.7 0.00 0.00 0.00 46 1013.3
20260901185633 33 203 0.0 6.4 0.00 0.00 0.00 48 1013.6
20260901185629 33 180 1.6 8.0 0.00 0.00 0.00 48 1013.6
20260901184629 33 270 1.6 9.7 0.00 0.00 0.00 46 1013.6
20260901184129 33 203 1.6 9.7 0.00 0.00 0.00 48 1013.6
20260901183629 33 180 3.2 9.7 0.00 0.00 0.00 49 1013.6
20260901183127 33 270 1.6 8.0 0.00 0.00 0.00 49 1013.9
20260901182630 33 270 1.6 9.7 0.00 0.00 0.00 48 1013.6
20260901182130 33 180 1.6 9.7 0.00 0.00 0.00 48 1013.9
20260901181628 32 158 1.6 8.0 0.00 0.00 0.00 48 1013.9
20260901181359 32 203 1.6 9.7 0.00 0.00 0.00 49 1013.9
20260901180613 32 90 1.6 9.7 0.00 0.00 0.00 49 1013.9
20260901180110 32 180 1.6 6.4 0.00 0.00 0.00 50 1013.9
20260901175611 32 225 1.6 6.4 0.00 0.00 0.00 50 1014.3
20260901175109 32 180 1.6 6.4 0.00 0.00 0.00 50 1014.3
20260901174608 32 180 1.6 6.4 0.00 0.00 0.00 50 1014.3
20260901174108 32 180 1.6 8.0 0.00 0.00 0.00 50 1014.3
20260901173609 32 203 1.6 8.0 0.00 0.00 0.00 51 1014.3
20260901173109 32 225 1.6 8.0 0.00 0.00 0.00 51 1014.3
20260901172609 31 270 1.6 8.0 0.00 0.00 0.00 51 1014.3
20260901172109 31 203 1.6 11.3 0.00 0.00 0.00 50 1014.3
20260901171610 31 180 3.2 11.3 0.00 0.00 0.00 50 1014.3
20260901171109 32 203 1.6 9.7 0.00 0.00 0.00 50 1014.3
20260901170610 32 270 1.6 8.0 0.00 0.00 0.00 51 1014.3
20260901170109 32 23 1.6 8.0 0.00 0.00 0.00 51 1014.3
20260901165609 32 180 1.6 6.4 0.00 0.00 0.00 51 1014.3
20260901165109 32 203 1.6 8.0 0.00 0.00 0.00 51 1014.3
20260901164840 32 180 1.6 8.0 0.00 0.00 0.00 51 1013.9
20260901164110 32 45 1.6 8.0 0.00 0.00 0.00 50 1013.9
20260901163610 31 158 0.0 8.0 0.00 0.00 0.00 54 1014.3
20260901163109 31 270 1.6 8.0 0.00 0.00 0.00 53 1014.3
20260901162609 31 203 1.6 8.0 0.00 0.00 0.00 54 1013.9
20260901162341 30 203 1.6 8.0 0.00 0.00 0.00 56 1013.9
20260901161609 30 158 1.6 8.0 0.00 0.03 0.00 56 1014.3
20260901161108 30 225 1.6 6.4 0.00 0.03 0.00 58 1013.9
20260901160603 29 180 1.6 6.4 0.00 0.08 0.00 58 1013.9
20260901160321 29 203 1.6 6.4 0.00 0.10 0.00 59 1013.9
20260901155549 29 180 1.6 6.4 0.00 0.10 0.00 58 1013.9
20260901155051 28 225 0.0 6.4 0.00 0.13 0.00 59 1013.9
20260901154551 28 180 1.6 6.4 0.00 0.13 0.00 60 1013.6
20260901154321 28 203 0.0 8.0 0.00 0.15 0.00 60 1013.9
20260901153552 28 180 1.6 8.0 0.00 0.15 0.00 59 1013.6
20260901153050 28 158 1.6 6.4 0.00 0.18 0.00 60 1013.9
20260901152550 28 338 0.0 6.4 0.00 0.20 0.00 60 1013.9
20260901152049 28 270 1.6 6.4 0.00 0.23 0.00 61 1013.9
20260901151549 28 158 1.6 4.8 0.00 0.25 0.00 61 1013.9
20260901151049 27 158 0.0 3.2 0.00 0.25 0.00 61 1013.6
20260901150827 27 315 1.6 6.4 0.00 0.25 0.00 63 1013.9
20260901150551 27 315 0.0 6.4 0.00 0.25 0.00 61 1013.9
20260901145551 27 68 0.0 4.8 0.00 0.25 0.00 65 1013.6
20260901145050 26 270 0.0 3.2 0.00 0.25 0.00 65 1013.9
20260901144551 26 68 0.0 4.8 0.00 0.28 0.00 65 1013.6
20260901144049 26 270 0.0 4.8 0.00 0.28 0.00 65 1013.6
20260901143549 26 23 0.0 4.8 0.00 0.28 0.00 66 1013.6
20260901143049 26 248 0.0 4.8 0.00 0.33 0.00 68 1013.6
20260901142820 25 23 0.0 6.4 0.00 0.33 0.00 69 1013.3
20260901142050 25 248 0.0 6.4 0.00 0.33 0.00 70 1013.3
20260901141550 25 248 0.0 4.8 0.00 0.33 0.00 71 1013.6
20260901141050 25 68 0.0 3.2 0.00 0.33 0.00 71 1013.9
20260901140551 25 68 0.0 0.0 0.00 0.33 0.00 71 1013.3
20260901140050 25 90 0.0 0.0 0.00 0.33 0.00 73 1013.3
20260901135549 25 45 0.0 0.0 0.00 0.33 0.00 73 1013.6
20260901135049 25 23 0.0 0.0 0.00 0.33 0.00 73 1013.6
20260901134549 25 45 0.0 0.0 0.00 0.33 0.00 73 1013.3
20260901134049 25 0 0.0 0.0 0.00 0.33 0.00 74 1013.3
20260901133549 25 248 0.0 0.0 0.00 0.33 0.00 73 1013.3
20260901133050 25 225 0.0 0.0 0.00 0.33 0.00 73 1013.3
20260901132551 25 248 0.0 0.0 0.00 0.33 0.00 73 1013.3
20260901132050 25 113 0.0 0.0 0.00 0.33 0.00 73 1012.8
20260901131550 25 45 0.0 0.0 0.00 0.33 0.00 73 1012.5
20260901131051 25 225 0.0 0.0 0.00 0.33 0.00 74 1012.8
20260901130549 25 90 0.0 0.0 0.00 0.33 0.00 73 1012.8
20260901130319 25 45 0.0 0.0 0.00 0.33 0.00 73 1012.8
20260901125553 25 68 0.0 0.0 0.00 0.33 0.00 73 1012.8
20260901125549 25 45 0.0 0.0 0.00 0.33 0.00 74 1012.8
20260901124550 25 68 0.0 0.0 0.00 0.33 0.00 73 1012.8
20260901124050 25 68 0.0 0.0 0.00 0.33 0.00 73 1012.8
20260901123550 25 158 0.0 0.0 0.00 0.33 0.00 74 1012.8
20260901123322 25 113 0.0 0.0 0.00 0.33 0.00 74 1012.8
20260901122550 25 113 0.0 0.0 0.00 0.33 0.00 73 1012.8
20260901122049 25 113 0.0 0.0 0.00 0.33 0.00 74 1012.8
20260901121549 25 113 0.0 0.0 0.00 0.33 0.00 73 1012.5
20260901121049 25 158 0.0 0.0 0.00 0.33 0.00 73 1012.5
20260901120549 25 113 0.0 0.0 0.00 0.33 0.00 71 1012.5
20260901120056 25 23 0.0 0.0 0.00 0.33 0.00 73 1012.1
20260901120052 25 135 0.0 0.0 0.00 0.33 0.00 73 1012.5
20260901115322 25 23 0.0 0.0 0.00 0.33 0.00 71 1012.5
20260901114550 25 180 0.0 0.0 0.00 0.33 0.00 71 1012.5
20260901114050 25 158 0.0 0.0 0.00 0.33 0.00 71 1012.5
20260901113549 25 248 0.0 0.0 0.00 0.33 0.00 71 1012.1
20260901113049 25 158 0.0 0.0 0.00 0.33 0.00 71 1012.1
20260901112549 25 158 0.0 0.0 0.00 0.33 0.00 70 1012.5
20260901112049 25 158 0.0 0.0 0.00 0.33 0.00 70 1012.1
20260901111550 25 158 0.0 4.8 0.00 0.33 0.00 70 1012.1
20260901111050 25 23 0.0 4.8 0.00 0.33 0.00 70 1012.1
20260901110551 25 68 0.0 0.0 0.00 0.33 0.00 70 1012.1
20260901110050 25 45 0.0 0.0 0.00 0.33 0.00 70 1012.1
20260901105820 25 68 0.0 0.0 0.00 0.33 0.00 70 1012.1
20260901105049 25 68 0.0 0.0 0.00 0.33 0.00 70 1012.1
20260901104549 25 68 0.0 0.0 0.00 0.33 0.00 70 1012.1
20260901104049 25 45 0.0 0.0 0.00 0.33 0.00 70 1012.1
20260901103549 25 225 0.0 0.0 0.00 0.33 0.00 70 1012.1
20260901103049 25 23 0.0 0.0 0.00 0.33 0.00 70 1012.5
20260901102550 25 45 0.0 0.0 0.00 0.33 0.00 70 1012.5
20260901102050 25 23 0.0 0.0 0.00 0.33 0.00 70 1012.5
20260901101551 25 23 0.0 0.0 0.00 0.33 0.00 70 1012.5
20260901101050 25 23 0.0 0.0 0.00 0.33 0.00 70 1012.5
20260901100550 25 23 0.0 0.0 0.00 0.33 0.00 70 1012.1
20260901100048 25 68 0.0 0.0 0.00 0.33 0.00 70 1012.1
20260901095549 25 270 0.0 0.0 0.00 0.33 0.00 70 1012.5
20260901095049 25 203 0.0 0.0 0.00 0.33 0.00 70 1012.1
20260901094548 25 45 0.0 0.0 0.00 0.33 0.00 70 1012.5
20260901094050 25 113 0.0 0.0 0.00 0.33 0.00 70 1012.5
20260901093822 25 23 0.0 0.0 0.00 0.33 0.00 69 1012.5
20260901093321 25 180 0.0 0.0 0.00 0.33 0.00 69 1012.1
20260901092550 25 23 0.0 0.0 0.00 0.33 0.00 69 1012.5
20260901092051 25 158 0.0 0.0 0.00 0.33 0.00 69 1012.5
20260901091549 26 158 0.0 0.0 0.00 0.33 0.00 70 1012.5
20260901091320 26 158 0.0 0.0 0.00 0.33 0.00 70 1012.5
20260901090549 26 158 0.0 0.0 0.00 0.33 0.00 69 1012.8
20260901090048 26 158 0.0 0.0 0.00 0.33 0.00 69 1012.5
20260901085550 26 158 0.0 0.0 0.00 0.33 0.00 69 1012.5
20260901085051 26 135 0.0 0.0 0.00 0.33 0.00 69 1012.5
20260901084550 26 135 0.0 0.0 0.00 0.33 0.00 68 1012.5
20260901084050 26 158 0.0 0.0 0.00 0.33 0.00 66 1012.5
20260901083550 26 135 0.0 0.0 0.00 0.33 0.00 66 1012.5
20260901083320 26 158 0.0 0.0 0.00 0.33 0.00 66 1012.5
20260901082548 26 180 0.0 0.0 0.00 0.33 0.00 66 1012.8
20260901082049 26 135 0.0 0.0 0.00 0.33 0.00 68 1012.5
20260901081820 26 225 0.0 0.0 0.00 0.33 0.00 66 1012.5
20260901081049 26 203 0.0 0.0 0.00 0.33 0.00 66 1012.5
20260901080550 26 203 0.0 0.0 0.00 0.33 0.00 66 1012.5
20260901080050 26 180 0.0 0.0 0.00 0.33 0.00 65 1012.5
20260901075826 26 180 0.0 1.6 0.00 0.33 0.00 65 1012.5
20260901075050 26 180 0.0 1.6 0.00 0.33 0.00 65 1012.5
20260901074549 26 203 0.0 0.0 0.00 0.33 0.00 65 1012.1
20260901074049 26 203 0.0 3.2 0.00 0.33 0.00 65 1012.1
20260901073549 26 180 0.0 4.8 0.00 0.33 0.00 65 1012.5
20260901073048 26 180 0.0 4.8 0.00 0.33 0.00 65 1012.1
20260901072548 26 293 0.0 3.2 0.00 0.33 0.00 65 1012.5
20260901072049 26 158 0.0 3.2 0.00 0.33 0.00 65 1012.5
20260901071550 26 90 0.0 3.2 0.00 0.33 0.00 65 1012.5
20260901071050 26 270 0.0 0.0 0.00 0.33 0.00 65 1012.1
20260901070550 26 135 0.0 0.0 0.00 0.33 0.00 65 1012.1
20260901070050 26 90 0.0 0.0 0.00 0.33 0.00 65 1012.1
20260901065550 26 315 0.0 3.2 0.00 0.33 0.33 65 1012.1
20260901065320 26 0 0.0 3.2 0.00 0.33 0.33 65 1012.1
20260901064819 26 338 0.0 1.6 0.00 0.33 0.33 63 1012.1
20260901064048 26 23 0.0 1.6 0.00 0.33 0.33 63 1011.8
20260901063821 26 0 0.0 1.6 0.00 0.33 0.33 63 1011.8
20260901063033 27 338 0.0 3.2 0.00 0.33 0.33 63 1011.8
20260901062536 27 338 0.0 1.6 0.00 0.33 0.33 63 1012.1
20260901062531 27 0 0.0 1.6 0.00 0.33 0.33 63 1012.1
20260901061531 27 293 0.0 1.6 0.00 0.33 0.33 63 1012.1
20260901061030 27 23 0.0 0.0 0.00 0.33 0.33 61 1011.8
20260901060529 27 23 0.0 0.0 0.00 0.33 0.33 61 1012.1
20260901060031 27 0 0.0 0.0 0.00 0.33 0.33 61 1012.1
20260901055800 27 293 0.0 1.6 0.00 0.33 0.33 61 1012.1
20260901055031 27 0 0.0 1.6 0.00 0.33 0.33 60 1011.8
20260901054802 27 225 0.0 3.2 0.00 0.33 0.33 59 1011.8
20260901054302 27 315 0.0 3.2 0.00 0.33 0.33 59 1011.8
20260901053531 27 203 0.0 3.2 0.00 0.33 0.33 58 1012.1
20260901053031 27 270 0.0 3.2 0.00 0.33 0.33 58 1012.1
20260901052530 27 225 0.0 0.0 0.00 0.33 0.33 59 1012.1
20260901052030 27 225 0.0 0.0 0.00 0.33 0.33 59 1011.8
20260901051529 27 180 0.0 3.2 0.00 0.33 0.33 58 1012.1
20260901051030 27 270 0.0 3.2 0.00 0.36 0.33 56 1012.1
20260901050530 27 225 0.0 1.6 0.00 0.36 0.33 58 1011.8
20260901050032 27 248 0.0 0.0 0.00 0.36 0.33 58 1012.1
20260901045802 27 225 0.0 0.0 0.00 0.36 0.33 56 1011.8
20260901045031 27 248 0.0 0.0 0.00 0.36 0.33 56 1012.1
20260901044803 27 248 0.0 0.0 0.00 0.36 0.33 55 1012.1
20260901044031 27 248 0.0 0.0 0.00 0.36 0.33 55 1012.1
20260901043529 27 225 0.0 0.0 0.00 0.36 0.33 55 1011.8
20260901043030 27 180 0.0 0.0 0.00 0.36 0.33 55 1011.8
20260901042530 27 158 0.0 6.4 0.00 0.36 0.33 55 1012.1
20260901042030 28 180 1.6 6.4 0.00 0.36 0.33 55 1012.1
20260901041531 28 180 0.0 6.4 0.00 0.38 0.33 54 1011.8
20260901041303 28 180 0.0 9.7 0.00 0.41 0.33 53 1011.8
20260901040531 28 180 1.6 9.7 0.00 0.64 0.33 53 1011.8
20260901040031 28 158 0.0 4.8 0.00 0.79 0.33 51 1011.8
20260901035531 28 45 0.0 1.6 0.00 0.79 0.33 53 1011.8
20260901035030 28 315 0.0 1.6 0.00 0.79 0.33 51 1011.8
20260901034530 28 113 0.0 3.2 0.00 0.79 0.33 50 1011.8
20260901034300 28 135 0.0 6.4 0.00 0.79 0.33 53 1011.8
20260901033530 28 113 0.0 6.4 0.00 0.79 0.33 53 1011.5
20260901033030 28 180 0.0 6.4 0.00 0.79 0.33 53 1011.8
20260901032531 28 90 1.6 6.4 0.00 0.79 0.33 53 1011.5
20260901032031 28 338 1.6 8.0 0.00 0.79 0.33 53 1011.5
20260901031531 28 180 1.6 9.7 0.00 0.79 0.33 54 1011.1
20260901031031 28 68 1.6 11.3 0.00 0.79 0.33 54 1011.1
20260901030530 28 203 1.6 11.3 0.00 0.79 0.33 53 1011.1
20260901030301 28 158 0.0 4.8 0.00 0.79 0.33 51 1011.1
20260901025800 28 180 0.0 4.8 0.00 0.79 0.33 50 1011.1
20260901025030 28 158 0.0 4.8 0.00 0.79 0.33 51 1010.8
20260901024531 28 158 0.0 4.8 0.00 0.79 0.33 51 1010.8
20260901024302 28 180 0.0 0.0 0.00 0.79 0.33 55 1010.8
20260901023531 28 180 0.0 0.0 0.00 0.79 0.33 54 1010.8
20260901023031 28 180 0.0 0.0 0.00 0.79 0.33 51 1010.5
20260901022531 28 180 0.0 0.0 0.00 0.79 0.33 56 1010.8
20260901022031 28 23 0.0 0.0 0.00 0.79 0.33 56 1010.8
20260901021529 28 45 0.0 0.0 0.00 0.79 0.33 56 1010.8
20260901021305 28 45 0.0 0.0 0.00 0.79 0.33 54 1010.5
20260901021030 28 45 0.0 0.0 0.00 0.79 0.33 55 1010.5
20260901020030 29 45 0.0 0.0 0.00 0.79 0.33 51 1010.0
20260901015531 29 45 0.0 0.0 0.00 0.79 0.33 51 1010.0
20260901015031 29 68 0.0 0.0 0.00 0.79 0.33 55 1010.0
20260901014531 29 45 0.0 0.0 0.00 0.79 0.33 53 1010.0
20260901014302 29 45 0.0 0.0 0.00 0.79 0.33 53 1010.0
20260901013531 29 45 0.0 0.0 0.00 0.79 0.33 51 1010.0
20260901013029 29 23 0.0 1.6 0.00 0.79 0.33 50 1010.5
20260901012800 30 45 0.0 1.6 0.00 0.79 0.33 50 1010.0
20260901012300 30 45 0.0 0.0 0.00 0.79 0.33 51 1010.0
20260901011530 30 23 0.0 0.0 0.00 0.79 0.33 51 1010.5
20260901011031 30 23 0.0 8.0 0.00 0.79 0.33 50 1010.5
20260901010531 30 23 1.6 8.0 0.00 0.79 0.33 50 1010.5
20260901010033 30 45 0.0 6.4 0.00 0.79 0.33 50 1010.0
20260901005531 30 68 1.6 6.4 0.00 0.79 0.33 50 1010.5
20260901005032 30 203 0.0 4.8 0.00 0.79 0.33 48 1010.0
20260901004530 30 158 0.0 4.8 0.00 0.79 0.33 48 1010.5
20260901004029 30 225 0.0 4.8 0.00 0.79 0.33 49 1010.5
20260901003530 30 203 0.0 4.8 0.00 0.79 0.33 49 1010.5
20260901003030 30 270 0.0 3.2 0.00 0.79 0.33 46 1010.5
20260901002801 30 248 0.0 3.2 0.00 0.79 0.33 49 1010.5
20260901002030 30 270 0.0 3.2 0.00 0.79 0.33 49 1010.5
20260901001531 30 203 0.0 3.2 0.00 0.79 0.33 48 1010.5
20260901001031 30 45 0.0 4.8 0.00 0.79 0.33 50 1010.5
20260901000531 30 270 0.0 4.8 0.00 0.79 0.33 46 1010.5
20260901000030 30 203 0.0 6.4 0.00 0.79 0.33 46 1010.8
20260831235529 30 315 1.6 6.4 0.00 0.79 0.33 46 1010.8
20260831235030 30 180 0.0 8.0 0.00 0.79 0.33 46 1010.8
20260831234529 30 113 1.6 8.0 0.00 0.79 0.33 46 1010.8
20260831234030 30 180 1.6 6.4 0.00 0.79 0.33 46 1010.8
20260831233801 30 225 1.6 4.8 0.00 0.79 0.33 45 1010.8
20260831233030 30 248 0.0 8.0 0.00 0.79 0.33 45 1010.8
20260831232532 30 180 1.6 8.0 0.00 0.79 0.33 45 1010.8
20260831232031 30 180 0.0 8.0 0.00 0.79 0.33 50 1010.8
20260831231530 30 180 1.6 11.3 0.00 0.79 0.33 48 1010.8
20260831231300 30 158 1.6 11.3 0.00 0.79 0.33 49 1010.8
20260831230529 30 270 1.6 8.0 0.00 0.79 0.33 50 1011.1
20260831230029 30 203 1.6 8.0 0.00 0.79 0.33 49 1011.1
20260831225529 30 270 0.0 9.7 0.00 0.79 0.33 50 1011.1
20260831225030 30 225 1.6 9.7 0.00 0.79 0.33 50 1011.1
20260831224530 30 0 1.6 6.4 0.00 0.79 0.33 48 1011.1
20260831224030 30 203 1.6 8.0 0.00 0.79 0.33 48 1011.5
20260831223530 30 180 1.6 8.0 0.00 0.79 0.33 48 1011.5
20260831223010 30 45 1.6 9.7 0.00 0.79 0.33 49 1011.1
20260831222511 30 248 1.6 9.7 0.00 0.79 0.33 46 1011.5
20260831222010 31 158 1.6 9.7 0.00 0.79 0.33 51 1011.8
20260831221510 30 270 1.6 8.0 0.00 0.79 0.33 48 1012.1
20260831221010 30 225 1.6 8.0 0.00 0.79 0.33 51 1011.8
20260831220511 31 0 0.0 8.0 0.00 0.79 0.33 50 1012.1
20260831220242 30 23 1.6 8.0 0.00 0.79 0.33 54 1012.1
20260831215511 30 225 1.6 11.3 0.00 0.79 0.33 54 1012.5
20260831215011 30 158 1.6 11.3 0.00 0.79 0.33 53 1012.8
20260831214511 30 225 1.6 9.7 0.00 0.79 0.33 53 1012.8
20260831214011 30 0 1.6 9.7 0.00 0.79 0.33 55 1013.3
20260831213510 30 113 1.6 9.7 0.00 0.79 0.33 55 1013.3
20260831213010 29 180 1.6 11.3 0.00 0.79 0.33 56 1013.3
20260831212510 29 135 1.6 14.5 0.00 0.79 0.33 55 1013.3
20260831212242 29 203 3.2 14.5 0.00 0.79 0.33 55 1013.6
20260831211511 28 180 1.6 9.7 0.00 0.79 0.33 58 1013.6
20260831211011 28 68 1.6 9.7 0.00 0.79 0.33 56 1013.9
20260831210511 28 225 1.6 11.3 0.00 0.79 0.33 58 1013.9
20260831210010 28 203 1.6 11.3 0.00 0.79 0.33 58 1013.9
20260831205514 28 158 1.6 9.7 0.00 0.79 0.33 59 1014.3
20260831205510 28 203 1.6 6.4 0.00 0.79 0.33 55 1013.9
20260831204510 28 225 1.6 9.7 0.00 0.79 0.33 60 1014.3
20260831204009 28 225 1.6 8.0 0.00 0.79 0.33 61 1014.3
20260831203511 27 158 1.6 16.1 0.00 0.79 0.33 63 1014.3
20260831203010 27 135 3.2 16.1 0.00 0.79 0.33 63 1014.6
20260831202510 27 225 1.6 14.5 0.00 0.79 0.33 63 1014.3
20260831202010 27 270 1.6 6.4 0.00 0.79 0.33 63 1014.3
20260831201510 26 225 1.6 9.7 0.00 0.79 0.33 65 1014.6
20260831201009 26 203 1.6 11.3 0.00 0.79 0.33 65 1014.3
20260831200509 26 158 3.2 11.3 0.00 0.79 0.33 68 1014.3
20260831200009 26 203 3.2 14.5 0.00 0.79 0.33 69 1014.3
20260831195509 26 180 3.2 16.1 0.00 0.79 0.33 68 1014.6
20260831195010 26 180 1.6 16.1 0.00 0.79 0.33 73 1014.6
20260831194510 25 225 1.6 8.0 0.00 0.79 0.33 73 1015.0
20260831194010 25 0 1.6 9.7 0.00 0.79 0.33 73 1014.6
20260831193510 25 180 1.6 9.7 0.00 0.79 0.33 74 1014.6
20260831193242 25 90 1.6 6.4 0.00 0.79 0.33 73 1015.0
20260831192509 25 315 1.6 8.0 0.00 0.79 0.33 74 1014.6
20260831192009 25 293 1.6 9.7 0.00 0.79 0.33 73 1014.6
20260831191511 25 225 1.6 9.7 0.00 0.79 0.33 75 1015.0
20260831191240 25 225 1.6 9.7 0.00 0.79 0.33 75 1015.0
20260831190509 25 158 1.6 9.7 0.00 0.79 0.33 76 1015.0